ONEWEB-0399

operational
NORAD ID: 50479 Int'l Des: 2021-132 Owner: ONEWEBN Country: UK Constellation: oneweb
LEOCIRCULARPOLARONEWEB_TYPE

About ONEWEB-0399

Description loading...

Live Position

Loading 3D Globe...

Upcoming Passes

Altitude History

Altitude vs Time

uPlot chart will show altitude changes over time

Two-Line Element Set

1 50479U 21132L 25250.06025469 .00000378 00000-0 10294-2 0 9996
2 50479 87.8767 77.4788 0002284 85.9442 274.1947 13.11423524178498
Epoch: Sep 7, 2025 • Age: 19 hours

Current Status

Altitude 1224.5 km
Velocity 7.25 km/s
Sub-Earth Point 50.38°N, 38.64°W
Launch Date Dec 27, 2021
Age 3.6 years
Type internet

Technical Details

Classification Payload
Mass 148.00 kg
Dry Mass 140.00 kg
Total Mass 148.00 kg
Length 1.30 m
Diameter 1.00 m
Span 5.00 m
Shape Trapezoid+2 pan
Manufacturer ONEWUS
Bus Type ARROW
Phase Status In Orbit
Owner/State ONEWEBN/UK

Large Constellations

Loading constellations...